Corpus Christi NAS, TX

1:05 PM CDT on March 29, 2017 (GMT -0500)
Corpus Christi Naval Air Station-Truax

Weather History for KNGP - October, 2012

Change the Weather History Date:

Monday, October 15, 2012

  Actual Average Record
Temperature  
Mean Temperature 80 °F -  
Max Temperature 84 °F 80 °F 89 °F (2007)
Min Temperature 75 °F 66 °F 53 °F (2004)
Cooling Degree Days 14    
Growing Degree Days 30 (Base 50)    
Moisture  
Dew Point 70 °F    
Average Humidity 76    
Maximum Humidity 94    
Minimum Humidity 56    
Precipitation  
Precipitation 0.00 in - - ()
Sea Level Pressure  
Sea Level Pressure 30.00 in    
Wind  
Wind Speed 7 mph (NE)    
Max Wind Speed 14 mph    
Max Gust Speed -    
Visibility 10 miles    
Events      
Averages and records for this station are not official NWS values.
T = Trace of Precipitation, MM = Missing Value Source: NWS Daily Summary

Daily Weather History Graph

Daily Weather History Graph

Search for Another Location

Airport or City:

Trip Planner

Search our weather history database for the weather conditions in past years. The results will help you decide how hot, cold, wet, or windy it might be!

Date:

Astronomy

Oct. 15, 2012 Rise Set
Actual Time 7:29 AM CDT 6:59 PM CDT
Civil Twilight 7:06 AM CDT 7:23 PM CDT
Nautical Twilight 6:38 AM CDT 7:50 PM CDT
Astronomical Twilight 6:11 AM CDT 8:17 PM CDT
Moon 7:36 AM CDT (10/15) 7:07 PM CDT (10/15)
Length of Visible Light 12h 17m
Length of Day
11h 29m
New Moon, 0% of the Moon is Illuminated
Oct 15
New Moon
Oct 21
First Quarter
Oct 29
Full
Nov 6
Last Quarter
Nov 13
New

Hourly Weather History & Observations

Time (CDT) Temp. Heat Index Dew Point Humidity Pressure Visibility Wind Dir Wind Speed Gust Speed Precip Events Conditions
12:56 AM 77.0 °F - 73.9 °F 90% 30.01 in 10.0 mi South 4.6 mph - N/A   Clear
1:56 AM 75.9 °F - 73.9 °F 94% 30.01 in 10.0 mi Calm Calm - N/A   Clear
2:56 AM 75.9 °F - 73.9 °F 94% 30.02 in 10.0 mi Calm Calm - N/A   Clear
3:56 AM 77.0 °F - 73.9 °F 90% 30.01 in 10.0 mi Calm Calm - N/A   Overcast
4:56 AM 77.0 °F - 75.0 °F 94% 30.01 in 10.0 mi North 4.6 mph - N/A   Overcast
5:56 AM 77.0 °F - 75.0 °F 94% 30.01 in 10.0 mi NNE 11.5 mph - N/A   Partly Cloudy
6:56 AM 77.0 °F - 73.9 °F 90% 30.01 in 10.0 mi NNE 8.1 mph - N/A   Overcast
7:56 AM 77.0 °F - 75.0 °F 94% 30.02 in 10.0 mi NNE 6.9 mph - N/A   Mostly Cloudy
8:56 AM 77.0 °F - 72.0 °F 84% 30.04 in 10.0 mi NNE 12.7 mph - N/A   Mostly Cloudy
9:56 AM 80.1 °F 82.7 °F 68.0 °F 67% 30.05 in 10.0 mi NE 12.7 mph - N/A   Overcast
10:56 AM 80.1 °F 82.3 °F 66.9 °F 64% 30.06 in 10.0 mi NE 13.8 mph - N/A   Mostly Cloudy
11:56 AM 82.0 °F 84.5 °F 66.9 °F 60% 30.06 in 10.0 mi NE 12.7 mph - N/A   Mostly Cloudy
12:56 PM 82.0 °F 84.1 °F 66.0 °F 58% 30.03 in 10.0 mi NNE 13.8 mph - N/A   Mostly Cloudy
1:56 PM 84.0 °F 86.5 °F 66.9 °F 56% 30.01 in 10.0 mi NE 13.8 mph - N/A   Mostly Cloudy
2:56 PM 82.9 °F 85.0 °F 66.0 °F 56% 29.98 in 10.0 mi NE 12.7 mph - N/A   Mostly Cloudy
3:56 PM 82.0 °F 84.9 °F 68.0 °F 62% 29.95 in 10.0 mi ENE 12.7 mph - N/A   Mostly Cloudy
4:56 PM 80.1 °F 82.7 °F 68.0 °F 67% 29.94 in 10.0 mi ENE 12.7 mph - N/A   Mostly Cloudy
5:56 PM 79.0 °F - 68.0 °F 69% 29.95 in 10.0 mi ENE 11.5 mph - N/A   Mostly Cloudy
6:56 PM 78.1 °F - 66.9 °F 68% 29.96 in 10.0 mi ENE 8.1 mph - N/A   Mostly Cloudy
7:56 PM 78.1 °F - 64.9 °F 64% 29.96 in 10.0 mi East 8.1 mph - N/A   Overcast
8:56 PM 78.1 °F - 69.1 °F 74% 29.98 in 10.0 mi East 8.1 mph - N/A   Overcast
9:56 PM 77.0 °F - 68.0 °F 74% 29.98 in 10.0 mi East 9.2 mph - N/A   Overcast
10:56 PM 77.0 °F - 70.0 °F 79% 29.97 in 10.0 mi East 9.2 mph - N/A   Overcast
11:56 PM 77.0 °F - 69.1 °F 76% 29.97 in 10.0 mi East 6.9 mph - N/A   Overcast